| time (UTC) | temp F | wind direction | speed knots | gust knots | rain 1hr in | rain 24hr in | rain mn in | humidity % | barometer mb |
| 20260502210331 | 55 | 231 | 0.9 | 1.7 | 0.00 | 0.79 | 0.20 | 94 | 1010.8 |
| 20260502205811 | 55 | 291 | 0.9 | 2.6 | 0.00 | 0.79 | 0.20 | 94 | 1010.8 |
| 20260502205313 | 55 | 245 | 0.9 | 2.6 | 0.00 | 0.79 | 0.20 | 94 | 1010.9 |
| 20260502204843 | 55 | 248 | 0.9 | 2.6 | 0.00 | 0.79 | 0.20 | 93 | 1010.9 |
| 20260502204330 | 55 | 277 | 0.9 | 2.6 | 0.00 | 0.79 | 0.20 | 93 | 1011.1 |
| 20260502203811 | 55 | 281 | 0.0 | 2.6 | 0.00 | 0.79 | 0.20 | 93 | 1011.1 |
| 20260502203340 | 55 | 280 | 0.9 | 2.6 | 0.00 | 0.79 | 0.20 | 93 | 1011.1 |
| 20260502202820 | 55 | 296 | 0.0 | 2.6 | 0.00 | 0.79 | 0.20 | 93 | 1011.0 |
| 20260502202322 | 55 | 318 | 0.9 | 2.6 | 0.00 | 0.79 | 0.20 | 93 | 1011.1 |
| 20260502201851 | 55 | 265 | 0.9 | 2.6 | 0.00 | 0.79 | 0.20 | 93 | 1011.1 |
| 20260502201331 | 55 | 285 | 0.9 | 2.6 | 0.00 | 0.79 | 0.20 | 93 | 1011.1 |
| 20260502200811 | 56 | 252 | 0.9 | 2.6 | 0.00 | 0.79 | 0.20 | 93 | 1011.1 |
| 20260502200320 | 56 | 258 | 0.0 | 1.7 | 0.00 | 0.79 | 0.20 | 93 | 1011.1 |
| 20260502195821 | 56 | 256 | 0.0 | 2.6 | 0.00 | 0.79 | 0.20 | 93 | 1011.1 |
| 20260502195330 | 56 | 262 | 0.9 | 2.6 | 0.00 | 0.79 | 0.20 | 93 | 1011.1 |
| 20260502194811 | 56 | 266 | 0.9 | 4.3 | 0.00 | 0.79 | 0.20 | 93 | 1011.2 |
| 20260502194313 | 56 | 260 | 1.7 | 4.3 | 0.00 | 0.79 | 0.20 | 93 | 1011.1 |
| 20260502193815 | 56 | 236 | 0.9 | 3.5 | 0.00 | 0.79 | 0.20 | 93 | 1011.2 |
| 20260502193326 | 56 | 340 | 0.9 | 2.6 | 0.00 | 0.79 | 0.20 | 93 | 1011.1 |
| 20260502192833 | 56 | 273 | 0.0 | 0.9 | 0.00 | 0.79 | 0.20 | 93 | 1011.1 |
| 20260502192334 | 56 | 283 | 0.0 | 0.9 | 0.00 | 0.79 | 0.20 | 93 | 1011.1 |
| 20260502191815 | 56 | 283 | 0.0 | 0.9 | 0.00 | 0.79 | 0.20 | 93 | 1011.1 |
| 20260502191325 | 56 | 284 | 0.0 | 0.9 | 0.00 | 0.79 | 0.20 | 93 | 1011.1 |
| 20260502190827 | 56 | 283 | 0.0 | 0.9 | 0.00 | 0.79 | 0.20 | 93 | 1011.1 |
| 20260502190337 | 56 | 285 | 0.0 | 0.9 | 0.00 | 0.79 | 0.20 | 93 | 1011.1 |
| 20260502185817 | 56 | 226 | 0.0 | 0.9 | 0.00 | 0.79 | 0.20 | 93 | 1011.2 |
| 20260502185320 | 56 | 218 | 0.0 | 0.9 | 0.00 | 0.79 | 0.20 | 93 | 1011.1 |
| 20260502184827 | 56 | 285 | 0.0 | 0.9 | 0.00 | 0.79 | 0.20 | 93 | 1011.2 |
| 20260502184328 | 56 | 286 | 0.0 | 0.9 | 0.00 | 0.79 | 0.20 | 93 | 1011.2 |
| 20260502183832 | 56 | 287 | 0.0 | 0.9 | 0.00 | 0.79 | 0.20 | 93 | 1011.2 |
| 20260501215322 | 53 | 290 | 0.0 | 0.9 | 0.00 | 0.00 | 0.00 | 88 | 1019.6 |
| 20260501214844 | 53 | 290 | 0.0 | 0.9 | 0.00 | 0.00 | 0.00 | 88 | 1019.7 |
| 20260501214332 | 53 | 290 | 0.0 | 0.9 | 0.00 | 0.00 | 0.00 | 88 | 1019.6 |
| 20260501213814 | 54 | 290 | 0.0 | 0.9 | 0.00 | 0.00 | 0.00 | 88 | 1019.6 |
| 20260501212912 | 54 | 309 | 0.0 | 0.0 | 0.00 | 0.00 | 0.00 | 88 | 1019.6 |
| 20260501212336 | 54 | 309 | 0.0 | 0.0 | 0.00 | 0.00 | 0.00 | 87 | 1019.6 |
| 20260501211818 | 54 | 310 | 0.0 | 0.9 | 0.00 | 0.00 | 0.00 | 87 | 1019.5 |
| 20260501211320 | 54 | 296 | 0.0 | 0.0 | 0.00 | 0.00 | 0.00 | 86 | 1019.4 |
| 20260501210822 | 54 | 297 | 0.0 | 0.0 | 0.00 | 0.00 | 0.00 | 86 | 1019.3 |